Deer Park, WA

9:56 AM PDT on May 21, 2018 (GMT -0700)
Deer Park

Weather History for KDEW - March, 2013

Change the Weather History Date:

Sunday, March 24, 2013

  Actual Average Record
Temperature  
Mean Temperature 32 °F 40 °F  
Max Temperature 46 °F 51 °F 63 °F (2001)
Min Temperature 17 °F 29 °F 17 °F (2008)
Degree Days  
Heating Degree Days 33 25  
Month to date heating degree days 674 677  
Since 1 July heating degree days 5752 6042  
Cooling Degree Days 0 0  
Month to date cooling degree days 0 0  
Year to date cooling degree days 0 0  
Moisture  
Dew Point 19 °F    
Average Humidity 61    
Maximum Humidity 92    
Minimum Humidity 29    
Precipitation  
Precipitation 0.00 in 0.08 in 0.61 in (2017)
Month to date precipitation 1.05 1.54  
Year to date precipitation 3.48 5.77  
Sea Level Pressure  
Sea Level Pressure 30.33 in    
Wind  
Wind Speed 3 mph (NE)    
Max Wind Speed 12 mph    
Max Gust Speed 21 mph    
Visibility 10 miles    
Events      
T = Trace of Precipitation, MM = Missing Value Source: NWS Daily Summary

Daily Weather History Graph

Daily Weather History Graph

Search for Another Location

Airport or City:

Astronomy

Mar. 24, 2013 Rise Set
Actual Time 6:43 AM PDT 7:08 PM PDT
Civil Twilight 6:12 AM PDT 7:39 PM PDT
Nautical Twilight 5:35 AM PDT 8:16 PM PDT
Astronomical Twilight 4:57 AM PDT 8:55 PM PDT
Moon 4:33 PM PDT (3/24) 5:07 AM PDT (3/24)
Length of Visible Light 13h 27m
Length of Day
12h 25m
Waxing Gibbous, 92% of the Moon is Illuminated
Mar 24
Waxing Gibbous
Mar 27
Full
Apr 2
Last Quarter
Apr 10
New
Apr 18
First Quarter

Hourly Weather History & Observations

Time (PDT) Temp. Windchill Dew Point Humidity Pressure Visibility Wind Dir Wind Speed Gust Speed Precip Events Conditions
12:53 AM 23.0 °F - 19.9 °F 88% 30.36 in 10.0 mi Calm Calm - N/A   Clear
1:53 AM 21.9 °F 15.7 °F 19.9 °F 92% 30.37 in 10.0 mi West 4.6 mph - N/A   Clear
2:53 AM 19.9 °F - 17.1 °F 89% 30.37 in 10.0 mi Calm Calm - N/A   Clear
3:53 AM 19.0 °F - 16.0 °F 88% 30.38 in 10.0 mi Calm Calm - N/A   Clear
4:53 AM 21.0 °F - 18.0 °F 88% 30.39 in 10.0 mi Calm Calm - N/A   Clear
5:53 AM 19.9 °F 13.4 °F 17.1 °F 89% 30.38 in 10.0 mi North 4.6 mph - N/A   Clear
6:53 AM 21.0 °F - 18.0 °F 88% 30.39 in 10.0 mi Calm Calm - N/A   Clear
7:53 AM 27.0 °F 23.0 °F 23.0 °F 85% 30.40 in 10.0 mi North 3.5 mph - N/A   Clear
8:53 AM 32.0 °F 24.8 °F 24.1 °F 73% 30.40 in 10.0 mi NE 8.1 mph - N/A   Clear
9:53 AM 35.1 °F 31.0 °F 24.1 °F 64% 30.40 in 10.0 mi ENE 4.6 mph - N/A   Clear
10:53 AM 37.0 °F 34.5 °F 24.1 °F 59% 30.38 in 10.0 mi South 3.5 mph - N/A   Clear
11:53 AM 39.9 °F 35.8 °F 23.0 °F 51% 30.38 in 10.0 mi SSE 5.8 mph - N/A   Clear
12:53 PM 42.1 °F 37.7 °F 21.0 °F 43% 30.36 in 10.0 mi South 6.9 mph - N/A   Clear
1:53 PM 43.0 °F 39.5 °F 16.0 °F 34% 30.34 in 10.0 mi Variable 5.8 mph - N/A   Overcast
2:53 PM 44.1 °F 40.1 °F 18.0 °F 35% 30.32 in 10.0 mi NE 6.9 mph - N/A   Mostly Cloudy
3:53 PM 42.1 °F - 15.1 °F 34% 30.30 in 10.0 mi Calm Calm - N/A   Clear
5:53 PM 44.1 °F 42.5 °F 16.0 °F 32% 30.26 in 10.0 mi South 3.5 mph - N/A   Clear
6:53 PM 42.1 °F - 12.9 °F 31% 30.25 in 10.0 mi Calm Calm - N/A   Clear
7:53 PM 28.9 °F - 21.0 °F 72% 30.25 in 10.0 mi Calm Calm - N/A   Clear
8:53 PM 28.0 °F - 19.0 °F 69% 30.24 in 10.0 mi Calm Calm - N/A   Clear
9:53 PM 28.9 °F - 17.1 °F 61% 30.25 in 10.0 mi Calm Calm - N/A   Clear
10:53 PM 25.0 °F 20.7 °F 17.1 °F 72% 30.24 in 10.0 mi NE 3.5 mph - N/A   Clear
11:53 PM 27.0 °F 23.0 °F 16.0 °F 63% 30.23 in 10.0 mi North 3.5 mph - N/A   Clear